| time (UTC) | temp F | wind direction | speed MPH | gust MPH | rain 1hr in | rain 24hr in | rain mn in | humidity % | barometer mb |
| 20260504030313 | 61 | 80 | 0.0 | 0.0 | 0.00 | 0.00 | 0.00 | 73 | 995.9 |
| 20260504025814 | 61 | 80 | 0.0 | 0.0 | 0.00 | 0.00 | 0.00 | 73 | 995.9 |
| 20260504025313 | 61 | 80 | 0.0 | 0.0 | 0.00 | 0.00 | 0.00 | 73 | 995.9 |
| 20260504024813 | 61 | 80 | 0.0 | 0.0 | 0.00 | 0.00 | 0.00 | 74 | 995.9 |
| 20260504024312 | 61 | 80 | 0.0 | 0.0 | 0.00 | 0.00 | 0.00 | 73 | 995.9 |
| 20260504023812 | 61 | 80 | 0.0 | 0.0 | 0.00 | 0.00 | 0.00 | 74 | 995.9 |
| 20260504023313 | 61 | 80 | 0.0 | 0.0 | 0.00 | 0.00 | 0.00 | 73 | 995.9 |
| 20260504023041 | 61 | 80 | 0.0 | 0.0 | 0.00 | 0.00 | 0.00 | 74 | 995.8 |
| 20260504022313 | 61 | 80 | 0.0 | 0.0 | 0.00 | 0.00 | 0.00 | 73 | 995.8 |
| 20260504021811 | 62 | 80 | 0.0 | 0.0 | 0.00 | 0.00 | 0.00 | 73 | 995.8 |
| 20260504021312 | 62 | 80 | 0.0 | 0.0 | 0.00 | 0.00 | 0.00 | 72 | 995.8 |
| 20260504020812 | 62 | 80 | 0.0 | 0.0 | 0.00 | 0.00 | 0.00 | 70 | 995.7 |
| 20260504020310 | 62 | 80 | 0.0 | 0.0 | 0.00 | 0.00 | 0.00 | 70 | 995.7 |
| 20260504015810 | 63 | 155 | 0.0 | 0.0 | 0.00 | 0.00 | 0.00 | 70 | 995.7 |
| 20260504015310 | 64 | 196 | 0.0 | 0.0 | 0.00 | 0.00 | 0.00 | 69 | 995.7 |
| 20260504014810 | 64 | 196 | 0.0 | 0.0 | 0.00 | 0.00 | 0.00 | 68 | 995.6 |
| 20260504014541 | 65 | 196 | 0.0 | 0.0 | 0.00 | 0.00 | 0.00 | 66 | 995.6 |
| 20260504013810 | 66 | 196 | 0.0 | 0.0 | 0.00 | 0.00 | 0.00 | 64 | 995.6 |
| 20260504013310 | 69 | 251 | 0.0 | 0.0 | 0.00 | 0.00 | 0.00 | 58 | 995.4 |
| 20260504012810 | 69 | 251 | 0.0 | 0.0 | 0.00 | 0.00 | 0.00 | 58 | 995.5 |
| 20260504012308 | 69 | 251 | 0.0 | 3.0 | 0.00 | 0.00 | 0.00 | 58 | 995.5 |
| 20260504011808 | 69 | 251 | 0.0 | 3.0 | 0.00 | 0.00 | 0.00 | 56 | 995.4 |
| 20260504011309 | 69 | 251 | 0.0 | 1.0 | 0.00 | 0.00 | 0.00 | 56 | 995.5 |
| 20260504010808 | 70 | 243 | 1.0 | 3.0 | 0.00 | 0.00 | 0.00 | 55 | 995.3 |
| 20260504010308 | 70 | 243 | 1.0 | 4.0 | 0.00 | 0.00 | 0.00 | 55 | 995.3 |
| 20260504005807 | 71 | 243 | 1.0 | 4.0 | 0.00 | 0.00 | 0.00 | 54 | 995.4 |
| 20260504005539 | 71 | 243 | 2.0 | 4.0 | 0.00 | 0.00 | 0.00 | 53 | 995.2 |
| 20260504004809 | 72 | 243 | 1.0 | 3.0 | 0.00 | 0.00 | 0.00 | 53 | 995.2 |
| 20260504004307 | 72 | 243 | 0.0 | 3.0 | 0.00 | 0.00 | 0.00 | 52 | 995.3 |
| 20260504003808 | 72 | 243 | 2.0 | 6.0 | 0.00 | 0.00 | 0.00 | 50 | 995.2 |
| 20260504003307 | 72 | 230 | 4.0 | 6.0 | 0.00 | 0.00 | 0.00 | 50 | 995.3 |
| 20260504002806 | 73 | 240 | 4.0 | 5.0 | 0.00 | 0.00 | 0.00 | 49 | 995.2 |
| 20260504002537 | 73 | 247 | 4.0 | 6.0 | 0.00 | 0.00 | 0.00 | 49 | 995.3 |
| 20260504001807 | 73 | 244 | 4.0 | 9.0 | 0.00 | 0.00 | 0.00 | 49 | 995.4 |
| 20260504001307 | 74 | 230 | 4.0 | 9.0 | 0.00 | 0.00 | 0.00 | 48 | 995.3 |
| 20260504000806 | 74 | 262 | 5.0 | 9.0 | 0.00 | 0.00 | 0.00 | 48 | 995.4 |
| 20260504000535 | 74 | 220 | 4.0 | 12.0 | 0.00 | 0.00 | 0.00 | 47 | 995.4 |
| 20260503235806 | 74 | 245 | 7.0 | 12.0 | 0.00 | 0.00 | 0.00 | 46 | 995.4 |
| 20260503235305 | 74 | 254 | 4.0 | 7.0 | 0.00 | 0.00 | 0.00 | 47 | 995.3 |
| 20260503234806 | 74 | 268 | 5.0 | 11.0 | 0.00 | 0.00 | 0.00 | 46 | 995.4 |
| 20260503234307 | 74 | 262 | 7.0 | 11.0 | 0.00 | 0.00 | 0.00 | 45 | 995.3 |
| 20260503233805 | 74 | 254 | 7.0 | 13.0 | 0.00 | 0.00 | 0.00 | 46 | 995.4 |
| 20260503233308 | 75 | 234 | 8.0 | 13.0 | 0.00 | 0.00 | 0.00 | 44 | 995.5 |
| 20260503232804 | 75 | 223 | 7.0 | 13.0 | 0.00 | 0.00 | 0.00 | 44 | 995.5 |
| 20260503232305 | 75 | 224 | 8.0 | 16.0 | 0.00 | 0.00 | 0.00 | 45 | 995.5 |
| 20260503231804 | 75 | 254 | 7.0 | 16.0 | 0.00 | 0.00 | 0.00 | 44 | 995.5 |
| 20260503231305 | 75 | 259 | 5.0 | 14.0 | 0.00 | 0.00 | 0.00 | 44 | 995.6 |
| 20260503230806 | 75 | 250 | 4.0 | 12.0 | 0.00 | 0.00 | 0.00 | 43 | 995.7 |
| 20260503230304 | 75 | 254 | 7.0 | 13.0 | 0.00 | 0.00 | 0.00 | 43 | 995.7 |
| 20260503225805 | 75 | 231 | 6.0 | 15.0 | 0.00 | 0.00 | 0.00 | 43 | 995.8 |
| 20260503225305 | 75 | 257 | 6.0 | 18.0 | 0.00 | 0.00 | 0.00 | 42 | 995.8 |
| 20260503224805 | 75 | 235 | 10.0 | 18.0 | 0.00 | 0.00 | 0.00 | 42 | 995.9 |
| 20260503224304 | 75 | 266 | 7.0 | 11.0 | 0.00 | 0.00 | 0.00 | 42 | 995.9 |
| 20260503223805 | 75 | 262 | 6.0 | 13.0 | 0.00 | 0.00 | 0.00 | 42 | 996.0 |
| 20260503223305 | 75 | 262 | 7.0 | 13.0 | 0.00 | 0.00 | 0.00 | 41 | 996.1 |
| 20260503222805 | 75 | 243 | 9.0 | 11.0 | 0.00 | 0.00 | 0.00 | 41 | 996.1 |
| 20260503222304 | 75 | 243 | 9.0 | 14.0 | 0.00 | 0.00 | 0.00 | 41 | 996.2 |
| 20260503221803 | 75 | 255 | 8.0 | 16.0 | 0.00 | 0.00 | 0.00 | 41 | 996.2 |
| 20260503221535 | 75 | 252 | 11.0 | 16.0 | 0.00 | 0.00 | 0.00 | 40 | 996.3 |
| 20260503221033 | 75 | 275 | 6.0 | 10.0 | 0.00 | 0.00 | 0.00 | 41 | 996.5 |
| 20260503220304 | 75 | 237 | 9.0 | 14.0 | 0.00 | 0.00 | 0.00 | 40 | 996.4 |
| 20260503215802 | 75 | 237 | 9.0 | 16.0 | 0.00 | 0.00 | 0.00 | 40 | 996.5 |
| 20260503215304 | 75 | 250 | 10.0 | 16.0 | 0.00 | 0.00 | 0.00 | 39 | 996.6 |
| 20260503214801 | 75 | 247 | 10.0 | 15.0 | 0.00 | 0.00 | 0.00 | 40 | 996.7 |
| 20260503214301 | 75 | 210 | 6.0 | 15.0 | 0.00 | 0.00 | 0.00 | 39 | 996.7 |
| 20260503214032 | 75 | 271 | 9.0 | 14.0 | 0.00 | 0.00 | 0.00 | 39 | 996.8 |
| 20260503213301 | 75 | 247 | 6.0 | 16.0 | 0.00 | 0.00 | 0.00 | 40 | 996.7 |
| 20260503212800 | 75 | 230 | 7.0 | 16.0 | 0.00 | 0.00 | 0.00 | 39 | 996.8 |
| 20260503212300 | 75 | 221 | 4.0 | 14.0 | 0.00 | 0.00 | 0.00 | 41 | 996.9 |
| 20260503211800 | 75 | 247 | 6.0 | 14.0 | 0.00 | 0.00 | 0.00 | 39 | 997.0 |
| 20260503211302 | 75 | 237 | 10.0 | 15.0 | 0.00 | 0.00 | 0.00 | 39 | 997.1 |
| 20260503210800 | 75 | 245 | 4.0 | 15.0 | 0.00 | 0.00 | 0.00 | 39 | 997.2 |
| 20260503210301 | 75 | 240 | 7.0 | 12.0 | 0.00 | 0.00 | 0.00 | 40 | 997.3 |
| 20260503205759 | 75 | 255 | 6.0 | 12.0 | 0.00 | 0.00 | 0.00 | 39 | 997.3 |
| 20260503205300 | 75 | 255 | 7.0 | 13.0 | 0.00 | 0.00 | 0.00 | 39 | 997.4 |
| 20260503204800 | 74 | 206 | 7.0 | 13.0 | 0.00 | 0.00 | 0.00 | 39 | 997.5 |
| 20260503204533 | 74 | 268 | 4.0 | 11.0 | 0.00 | 0.00 | 0.00 | 39 | 997.6 |
| 20260503203802 | 74 | 247 | 7.0 | 10.0 | 0.00 | 0.00 | 0.00 | 40 | 997.7 |
| 20260503203259 | 74 | 259 | 4.0 | 12.0 | 0.00 | 0.00 | 0.00 | 39 | 997.9 |
| 20260503202757 | 74 | 221 | 6.0 | 18.0 | 0.00 | 0.00 | 0.00 | 39 | 997.9 |
| 20260503202258 | 74 | 252 | 4.0 | 18.0 | 0.00 | 0.00 | 0.00 | 39 | 997.9 |
| 20260503201759 | 74 | 245 | 9.0 | 15.0 | 0.00 | 0.00 | 0.00 | 40 | 998.0 |
| 20260503201258 | 74 | 247 | 8.0 | 15.0 | 0.00 | 0.00 | 0.00 | 39 | 998.1 |
| 20260503201033 | 73 | 252 | 8.0 | 13.0 | 0.00 | 0.00 | 0.00 | 40 | 998.3 |
| 20260503200258 | 74 | 265 | 7.0 | 13.0 | 0.00 | 0.00 | 0.00 | 41 | 998.3 |
| 20260503195759 | 73 | 250 | 9.0 | 19.0 | 0.00 | 0.00 | 0.00 | 39 | 998.4 |
| 20260503195259 | 73 | 251 | 10.0 | 19.0 | 0.00 | 0.00 | 0.00 | 39 | 998.7 |
| 20260503194757 | 73 | 255 | 7.0 | 12.0 | 0.00 | 0.00 | 0.00 | 40 | 998.8 |
| 20260503194259 | 73 | 272 | 7.0 | 16.0 | 0.00 | 0.00 | 0.00 | 41 | 998.9 |
| 20260503193758 | 72 | 252 | 10.0 | 16.0 | 0.00 | 0.00 | 0.00 | 39 | 999.0 |
| 20260503193258 | 73 | 217 | 7.0 | 12.0 | 0.00 | 0.00 | 0.00 | 42 | 999.1 |
| 20260503192757 | 72 | 285 | 8.0 | 12.0 | 0.00 | 0.00 | 0.00 | 41 | 999.3 |
| 20260503192258 | 72 | 240 | 6.0 | 15.0 | 0.00 | 0.00 | 0.00 | 42 | 999.3 |
| 20260503191758 | 72 | 264 | 9.0 | 15.0 | 0.00 | 0.00 | 0.00 | 40 | 999.3 |
| 20260503191258 | 72 | 259 | 6.0 | 13.0 | 0.00 | 0.00 | 0.00 | 41 | 999.5 |
| 20260503191029 | 71 | 234 | 8.0 | 13.0 | 0.00 | 0.00 | 0.00 | 40 | 999.7 |
| 20260503190527 | 71 | 258 | 8.0 | 13.0 | 0.00 | 0.00 | 0.00 | 40 | 999.7 |
| 20260503185800 | 71 | 276 | 5.0 | 11.0 | 0.00 | 0.00 | 0.00 | 41 | 999.8 |
| 20260503185257 | 71 | 262 | 6.0 | 11.0 | 0.00 | 0.00 | 0.00 | 41 | 1000.0 |
| 20260503184758 | 71 | 227 | 5.0 | 10.0 | 0.00 | 0.00 | 0.00 | 42 | 1000.0 |
| 20260503184257 | 71 | 244 | 4.0 | 12.0 | 0.00 | 0.00 | 0.00 | 44 | 1000.2 |
| 20260503183757 | 70 | 271 | 4.0 | 12.0 | 0.00 | 0.00 | 0.00 | 43 | 1000.3 |
| 20260503183256 | 70 | 254 | 3.0 | 13.0 | 0.00 | 0.00 | 0.00 | 44 | 1000.4 |
| 20260503182758 | 70 | 223 | 7.0 | 13.0 | 0.00 | 0.00 | 0.00 | 42 | 1000.5 |
| 20260503182256 | 69 | 240 | 2.0 | 11.0 | 0.00 | 0.00 | 0.00 | 46 | 1000.7 |
| 20260503181757 | 69 | 212 | 7.0 | 11.0 | 0.00 | 0.00 | 0.00 | 44 | 1000.8 |
| 20260503181527 | 69 | 288 | 5.0 | 12.0 | 0.00 | 0.00 | 0.00 | 44 | 1000.9 |
| 20260503180756 | 69 | 257 | 7.0 | 12.0 | 0.00 | 0.00 | 0.00 | 45 | 1001.0 |
| 20260503180256 | 69 | 245 | 4.0 | 13.0 | 0.00 | 0.00 | 0.00 | 45 | 1001.0 |
| 20260503175755 | 69 | 248 | 6.0 | 13.0 | 0.00 | 0.00 | 0.00 | 45 | 1001.2 |
| 20260503175255 | 68 | 266 | 3.0 | 14.0 | 0.00 | 0.00 | 0.00 | 45 | 1001.3 |
| 20260503174755 | 68 | 257 | 8.0 | 14.0 | 0.00 | 0.00 | 0.00 | 45 | 1001.4 |
| 20260503174255 | 68 | 219 | 5.0 | 12.0 | 0.00 | 0.00 | 0.00 | 46 | 1001.4 |
| 20260503173756 | 68 | 255 | 4.0 | 12.0 | 0.00 | 0.00 | 0.00 | 45 | 1001.6 |
| 20260503173255 | 68 | 247 | 7.0 | 12.0 | 0.00 | 0.00 | 0.00 | 45 | 1001.6 |
| 20260503173028 | 68 | 244 | 3.0 | 12.0 | 0.00 | 0.00 | 0.00 | 47 | 1001.7 |
| 20260503172256 | 68 | 233 | 3.0 | 12.0 | 0.00 | 0.00 | 0.00 | 47 | 1001.9 |
| 20260503171756 | 67 | 73 | 5.0 | 7.0 | 0.00 | 0.00 | 0.00 | 49 | 1001.9 |
| 20260503171254 | 67 | 73 | 5.0 | 7.0 | 0.00 | 0.00 | 0.00 | 49 | 1002.1 |
| 20260503170755 | 67 | 261 | 6.0 | 7.0 | 0.00 | 0.00 | 0.00 | 49 | 1002.1 |
| 20260503170253 | 66 | 306 | 4.0 | 15.0 | 0.00 | 0.00 | 0.00 | 49 | 1002.1 |
| 20260503150750 | 61 | 257 | 9.0 | 16.0 | 0.00 | 0.00 | 0.00 | 54 | 1003.4 |
| 20260503150248 | 60 | 228 | 9.0 | 17.0 | 0.00 | 0.00 | 0.00 | 55 | 1003.5 |
| 20260503140248 | 50 | 219 | 2.0 | 3.0 | 0.00 | 0.00 | 0.00 | 88 | 1004.1 |
| 20260503131247 | 42 | 223 | 0.0 | 2.0 | 0.00 | 0.00 | 0.00 | 95 | 1004.2 |
| 20260503130747 | 42 | 223 | 0.0 | 2.0 | 0.00 | 0.00 | 0.00 | 95 | 1004.3 |
| 20260503130247 | 41 | 223 | 0.0 | 1.0 | 0.00 | 0.00 | 0.00 | 95 | 1004.2 |
| 20260503110741 | 38 | 63 | 0.0 | 2.0 | 0.00 | 0.00 | 0.00 | 92 | 1003.6 |
| 20260503110514 | 38 | 63 | 0.0 | 2.0 | 0.00 | 0.00 | 0.00 | 92 | 1003.6 |
| 20260503100240 | 38 | 63 | 0.0 | 0.0 | 0.00 | 0.00 | 0.00 | 92 | 1003.7 |
| 20260503090238 | 38 | 63 | 0.0 | 0.0 | 0.00 | 0.00 | 0.00 | 91 | 1003.7 |
| 20260503081233 | 39 | 63 | 0.0 | 0.0 | 0.00 | 0.00 | 0.00 | 90 | 1003.8 |
| 20260503080734 | 38 | 63 | 0.0 | 0.0 | 0.00 | 0.00 | 0.00 | 90 | 1003.9 |
| 20260503080234 | 39 | 63 | 0.0 | 0.0 | 0.00 | 0.00 | 0.00 | 90 | 1003.8 |
| 20260503072733 | 39 | 63 | 0.0 | 0.0 | 0.00 | 0.00 | 0.00 | 89 | 1003.9 |
| 20260503072233 | 39 | 63 | 0.0 | 0.0 | 0.00 | 0.00 | 0.00 | 89 | 1004.0 |
| 20260503072003 | 39 | 63 | 0.0 | 0.0 | 0.00 | 0.00 | 0.00 | 89 | 1003.9 |
| 20260503071233 | 39 | 63 | 0.0 | 0.0 | 0.00 | 0.00 | 0.00 | 89 | 1004.1 |
| 20260503070730 | 40 | 63 | 0.0 | 1.0 | 0.00 | 0.00 | 0.00 | 88 | 1004.0 |
| 20260503070231 | 40 | 63 | 0.0 | 1.0 | 0.00 | 0.00 | 0.00 | 88 | 1004.0 |
| 20260503054730 | 41 | 63 | 0.0 | 0.0 | 0.00 | 0.00 | 0.00 | 86 | 1004.1 |
| 20260503054232 | 42 | 63 | 0.0 | 0.0 | 0.00 | 0.00 | 0.00 | 86 | 1004.1 |
| 20260503053731 | 42 | 63 | 0.0 | 2.0 | 0.00 | 0.00 | 0.00 | 86 | 1004.0 |
| 20260503053230 | 42 | 63 | 0.0 | 2.0 | 0.00 | 0.00 | 0.00 | 86 | 1004.0 |
| 20260503053001 | 42 | 63 | 0.0 | 0.0 | 0.00 | 0.00 | 0.00 | 85 | 1004.0 |
| 20260503052230 | 42 | 63 | 0.0 | 0.0 | 0.00 | 0.00 | 0.00 | 85 | 1003.9 |
| 20260503051730 | 42 | 63 | 0.0 | 0.0 | 0.00 | 0.00 | 0.00 | 85 | 1003.8 |
| 20260503051229 | 42 | 63 | 0.0 | 0.0 | 0.00 | 0.00 | 0.00 | 85 | 1003.9 |
| 20260503050729 | 42 | 63 | 0.0 | 0.0 | 0.00 | 0.00 | 0.00 | 85 | 1003.9 |
| 20260503050504 | 42 | 63 | 0.0 | 0.0 | 0.00 | 0.00 | 0.00 | 85 | 1003.8 |
| 20260503045730 | 43 | 63 | 0.0 | 1.0 | 0.00 | 0.00 | 0.00 | 84 | 1003.8 |
| 20260503045228 | 43 | 63 | 0.0 | 2.0 | 0.00 | 0.00 | 0.00 | 84 | 1003.6 |
| 20260503044729 | 43 | 63 | 0.0 | 2.0 | 0.00 | 0.00 | 0.00 | 84 | 1003.6 |
| 20260503044230 | 43 | 63 | 0.0 | 2.0 | 0.00 | 0.00 | 0.00 | 84 | 1003.6 |
| 20260503043729 | 43 | 63 | 0.0 | 2.0 | 0.00 | 0.00 | 0.00 | 84 | 1003.6 |
| 20260503043230 | 43 | 63 | 0.0 | 2.0 | 0.00 | 0.00 | 0.00 | 83 | 1003.6 |
| 20260503042728 | 44 | 63 | 0.0 | 2.0 | 0.00 | 0.00 | 0.00 | 82 | 1003.5 |
| 20260503042228 | 44 | 63 | 0.0 | 2.0 | 0.00 | 0.00 | 0.00 | 82 | 1003.6 |
| 20260503042000 | 44 | 63 | 0.0 | 1.0 | 0.00 | 0.00 | 0.00 | 82 | 1003.5 |
| 20260503041229 | 44 | 63 | 0.0 | 1.0 | 0.00 | 0.00 | 0.00 | 82 | 1003.5 |
| 20260503040727 | 44 | 63 | 0.0 | 1.0 | 0.00 | 0.00 | 0.00 | 81 | 1003.4 |
| 20260503040228 | 44 | 63 | 0.0 | 2.0 | 0.00 | 0.00 | 0.00 | 81 | 1003.4 |
| 20260503035729 | 45 | 63 | 0.0 | 2.0 | 0.00 | 0.00 | 0.00 | 81 | 1003.5 |
| 20260503034727 | 45 | 63 | 0.0 | 2.0 | 0.00 | 0.00 | 0.00 | 80 | 1003.5 |
| 20260503034228 | 46 | 63 | 0.0 | 1.0 | 0.00 | 0.00 | 0.00 | 79 | 1003.5 |
| 20260503033728 | 46 | 63 | 0.0 | 1.0 | 0.00 | 0.00 | 0.00 | 79 | 1003.5 |
| 20260503033226 | 46 | 63 | 0.0 | 1.0 | 0.00 | 0.00 | 0.00 | 78 | 1003.5 |
| 20260503032728 | 46 | 63 | 0.0 | 2.0 | 0.00 | 0.00 | 0.00 | 78 | 1003.5 |
| 20260503032228 | 47 | 63 | 0.0 | 2.0 | 0.00 | 0.00 | 0.00 | 78 | 1003.5 |
| 20260503031726 | 47 | 63 | 0.0 | 0.0 | 0.00 | 0.00 | 0.00 | 77 | 1003.5 |
| 20260503031227 | 47 | 63 | 0.0 | 0.0 | 0.00 | 0.00 | 0.00 | 76 | 1003.5 |
| 20260503030728 | 47 | 63 | 0.0 | 0.0 | 0.00 | 0.00 | 0.00 | 75 | 1003.4 |
| 20260503030458 | 48 | 63 | 0.0 | 0.0 | 0.00 | 0.00 | 0.00 | 74 | 1003.4 |